COSMOS 2456 (730) (36111 NORAD) Tracking and Keplerian Element Data

This shows tracking and keplerian element data for the satellite.

Feedback or suggestion? Click here.




ElementValue
Catalog36111
NameCOSMOS 2456 (730)
Epoch Orbit6693
Epoch Day202.63778144
Epoch Year2018
RAAN169.9215
Inclination64.1892
Eccentricity0.0006418
Argument of Perigee302.2947
Mean Anonmoly170.8505
Mean Motion2.13102911
Decay Rate5.1E-07
L11 36111U 09070A 18202.63778144 .00000051 00000-0 00000+0 0 9996
L22 36111 64.1892 169.9215 0006418 302.2947 170.8505 2.13102911 66933

Live tracking and technical data element details for COSMOS 2456 (730) (NORAD 36111). COSMOS 2456 (730) can be tracked NOW for your location showing map with azimuth and elevation plus other details from your city location.

Track the satellite on the map from your city or location and see movement details for azimuth, elevation, latitude, longitude, range, height, and movement on the map or in text.







IsCatalogInMostPopularTable: catalog: 36111, numindb: 34
Update: records affected: 1



GetName: 36111 COSMOS 2456 (730)

Hit Count: updated at: Mon, 23 Jul 2018 07:36:47 GMT